When you browse on this site, cookies collect data to enhance your experience and personalize the content and advertising you see.
Visit our Privacy Policy to learn more. By continuing to use the site, you agree to this use of cookies and data.
  • în România
  • Lista ţărilor
  • Pe 7 zile
  • Temperatura apei
  • Meteo pe hartă
  • Widget-uri
  • user-avatar
    Intrare

    Meteo pe oră la London

    Astăzi, 30 Mai, Sâmbătă

    Timp Temperatura Precipitaţii Vânt Presiune Umiditate
    00:00 +10°C° 0 mm 3 m/s 767 mmHg 78%
    01:00 +9°C° 0 mm 3 m/s 767 mmHg 82%
    02:00 +9°C° 0 mm 3 m/s 767 mmHg 86%
    03:00 +9°C° 0 mm 3 m/s 766 mmHg 89%
    04:00 +10°C° 0 mm 3 m/s 766 mmHg 88%
    05:00 +12°C° 0 mm 3 m/s 766 mmHg 87%
    06:00 +13°C° 0 mm 3 m/s 766 mmHg 85%
    07:00 +16°C° 0 mm 3 m/s 766 mmHg 76%
    08:00 +18°C° 0 mm 4 m/s 766 mmHg 66%
    09:00 +20°C° 0 mm 4 m/s 766 mmHg 57%
    10:00 +20°C° 0 mm 4 m/s 766 mmHg 54%
    11:00 +21°C° 0 mm 5 m/s 766 mmHg 52%
    12:00 +21°C° 0 mm 5 m/s 766 mmHg 50%
    13:00 +21°C° 0 mm 5 m/s 766 mmHg 50%
    14:00 +21°C° 0 mm 5 m/s 765 mmHg 50%
    15:00 +21°C° 0 mm 5 m/s 765 mmHg 51%
    16:00 +21°C° 0 mm 5 m/s 765 mmHg 54%
    17:00 +20°C° 0 mm 5 m/s 765 mmHg 57%
    18:00 +19°C° 0 mm 4 m/s 765 mmHg 60%
    19:00 +18°C° 0 mm 4 m/s 765 mmHg 65%
    20:00 +15°C° 0 mm 4 m/s 765 mmHg 71%
    21:00 +13°C° 0 mm 4 m/s 766 mmHg 76%
    22:00 +13°C° 0 mm 3 m/s 766 mmHg 79%
    23:00 +13°C° 0 mm 3 m/s 766 mmHg 81%

    Mâine, 31 Mai, Duminică

    Timp Temperatura Precipitaţii Vânt Presiune Umiditate
    00:00 +12°C° 0 mm 3 m/s 766 mmHg 84%
    01:00 +12°C° 0 mm 3 m/s 766 mmHg 83%
    02:00 +12°C° 0 mm 3 m/s 766 mmHg 82%
    03:00 +12°C° 0 mm 3 m/s 766 mmHg 81%
    04:00 +13°C° 0 mm 3 m/s 766 mmHg 78%
    05:00 +14°C° 0 mm 3 m/s 766 mmHg 75%
    06:00 +14°C° 0 mm 4 m/s 766 mmHg 72%
    07:00 +17°C° 0 mm 4 m/s 766 mmHg 65%
    08:00 +17°C° 0 mm 5 m/s 766 mmHg 58%
    09:00 +20°C° 0 mm 5 m/s 766 mmHg 51%
    10:00 +20°C° 0 mm 5 m/s 766 mmHg 51%
    11:00 +21°C° 0 mm 6 m/s 766 mmHg 50%
    12:00 +21°C° 0 mm 6 m/s 766 mmHg 50%
    13:00 +21°C° 0 mm 6 m/s 766 mmHg 50%
    14:00 +21°C° 0 mm 6 m/s 766 mmHg 49%
    15:00 +21°C° 0 mm 6 m/s 766 mmHg 49%
    16:00 +20°C° 0 mm 6 m/s 766 mmHg 52%
    17:00 +19°C° 0 mm 6 m/s 766 mmHg 54%
    18:00 +17°C° 0 mm 5 m/s 766 mmHg 57%
    19:00 +16°C° 0 mm 5 m/s 766 mmHg 62%
    20:00 +14°C° 0 mm 5 m/s 766 mmHg 68%
    21:00 +13°C° 0 mm 4 m/s 766 mmHg 74%
    22:00 +12°C° 0 mm 4 m/s 766 mmHg 77%
    23:00 +12°C° 0 mm 4 m/s 766 mmHg 80%

    Poimâine, 1 Iunie, Luni

    Timp Temperatura Precipitaţii Vânt Presiune Umiditate
    00:00 +11°C° 0 mm 4 m/s 766 mmHg 83%
    01:00 +11°C° 0 mm 4 m/s 766 mmHg 86%
    02:00 +11°C° 0 mm 3 m/s 766 mmHg 88%
    03:00 +11°C° 0 mm 3 m/s 766 mmHg 90%
    04:00 +12°C° 0 mm 4 m/s 766 mmHg 88%
    05:00 +12°C° 0 mm 4 m/s 766 mmHg 85%
    06:00 +13°C° 0 mm 4 m/s 766 mmHg 83%
    07:00 +15°C° 0 mm 5 m/s 766 mmHg 76%
    08:00 +17°C° 0 mm 5 m/s 766 mmHg 69%
    09:00 +19°C° 0 mm 5 m/s 766 mmHg 62%
    10:00 +20°C° 0 mm 5 m/s 766 mmHg 59%
    11:00 +20°C° 0 mm 5 m/s 766 mmHg 56%
    12:00 +21°C° 0 mm 5 m/s 766 mmHg 53%
    13:00 +21°C° 0 mm 5 m/s 766 mmHg 51%
    14:00 +21°C° 0 mm 5 m/s 766 mmHg 50%
    15:00 +21°C° 0 mm 5 m/s 765 mmHg 48%
    16:00 +20°C° 0 mm 5 m/s 765 mmHg 51%
    17:00 +19°C° 0 mm 5 m/s 765 mmHg 55%
    18:00 +18°C° 0 mm 4 m/s 765 mmHg 59%
    19:00 +17°C° 0 mm 4 m/s 765 mmHg 65%
    20:00 +14°C° 0 mm 4 m/s 765 mmHg 72%
    21:00 +13°C° 0 mm 3 m/s 766 mmHg 79%
    22:00 +12°C° 0 mm 3 m/s 766 mmHg 82%
    23:00 +11°C° 0 mm 3 m/s 765 mmHg 85%

    2 Iunie, Marţi

    Timp Temperatura Precipitaţii Vânt Presiune Umiditate
    00:00 +12°C° 0 mm 2 m/s 765 mmHg 89%
    01:00 +12°C° 0 mm 2 m/s 765 mmHg 89%
    02:00 +10°C° 0 mm 2 m/s 765 mmHg 90%
    03:00 +10°C° 0 mm 2 m/s 765 mmHg 91%
    04:00 +12°C° 0 mm 2 m/s 764 mmHg 89%
    05:00 +13°C° 0 mm 2 m/s 764 mmHg 87%
    06:00 +14°C° 0 mm 2 m/s 764 mmHg 85%
    07:00 +16°C° 0 mm 2 m/s 764 mmHg 78%
    08:00 +18°C° 0 mm 2 m/s 764 mmHg 71%
    09:00 +20°C° 0 mm 3 m/s 764 mmHg 64%
    10:00 +21°C° 0 mm 2 m/s 764 mmHg 59%
    11:00 +24°C° 0 mm 2 m/s 763 mmHg 54%
    12:00 +25°C° 0 mm 2 m/s 763 mmHg 49%
    13:00 +25°C° 0 mm 2 m/s 762 mmHg 49%
    14:00 +25°C° 0 mm 2 m/s 762 mmHg 50%
    15:00 +25°C° 0 mm 2 m/s 761 mmHg 50%
    16:00 +24°C° 0 mm 2 m/s 761 mmHg 55%
    17:00 +23°C° 0 mm 2 m/s 760 mmHg 60%
    18:00 +23°C° 0 mm 2 m/s 760 mmHg 65%
    19:00 +20°C° 0.1 mm 2 m/s 760 mmHg 69%
    20:00 +19°C° 0.1 mm 2 m/s 760 mmHg 73%
    21:00 +18°C° 0.1 mm 2 m/s 760 mmHg 77%
    22:00 +17°C° 0.1 mm 2 m/s 759 mmHg 78%
    23:00 +16°C° 0.1 mm 2 m/s 759 mmHg 79%

    3 Iunie, Miercuri

    Timp Temperatura Precipitaţii Vânt Presiune Umiditate
    00:00 +16°C° 0.1 mm 1 m/s 758 mmHg 81%
    01:00 +15°C° 0.3 mm 1 m/s 758 mmHg 82%
    02:00 +15°C° 0.3 mm 1 m/s 757 mmHg 84%
    03:00 +15°C° 0.3 mm 1 m/s 757 mmHg 85%
    04:00 +15°C° 2.3 mm 1 m/s 756 mmHg 87%
    05:00 +15°C° 2.3 mm 1 m/s 756 mmHg 89%
    06:00 +14°C° 2.3 mm 1 m/s 756 mmHg 91%
    07:00 +15°C° 2.7 mm 2 m/s 755 mmHg 90%
    08:00 +15°C° 2.7 mm 2 m/s 755 mmHg 89%
    09:00 +14°C° 2.7 mm 3 m/s 755 mmHg 88%
    10:00 +14°C° 1.1 mm 3 m/s 755 mmHg 86%
    11:00 +14°C° 1.1 mm 4 m/s 755 mmHg 83%
    12:00 +15°C° 1.1 mm 4 m/s 755 mmHg 81%
    13:00 +15°C° 0.1 mm 5 m/s 755 mmHg 80%
    14:00 +15°C° 0.1 mm 5 m/s 754 mmHg 79%
    15:00 +15°C° 0.1 mm 5 m/s 754 mmHg 78%
    16:00 +15°C° 0 mm 6 m/s 754 mmHg 76%
    17:00 +14°C° 0 mm 6 m/s 754 mmHg 74%
    18:00 +14°C° 0 mm 6 m/s 754 mmHg 73%
    19:00 +13°C° 0 mm 6 m/s 754 mmHg 73%
    20:00 +13°C° 0 mm 6 m/s 754 mmHg 74%
    21:00 +11°C° 0 mm 6 m/s 754 mmHg 75%
    22:00 +11°C° 0 mm 6 m/s 753 mmHg 76%
    23:00 +11°C° 0 mm 6 m/s 753 mmHg 78%

    4 Iunie, Joi

    Timp Temperatura Precipitaţii Vânt Presiune Umiditate
    00:00 +11°C° 0 mm 6 m/s 753 mmHg 80%
    01:00 +11°C° 0 mm 6 m/s 752 mmHg 80%
    02:00 +11°C° 0 mm 7 m/s 751 mmHg 80%
    03:00 +11°C° 0 mm 7 m/s 751 mmHg 80%
    04:00 +11°C° 0 mm 7 m/s 751 mmHg 81%
    05:00 +11°C° 0 mm 6 m/s 750 mmHg 82%
    06:00 +11°C° 0 mm 6 m/s 750 mmHg 83%
    07:00 +13°C° 0.2 mm 6 m/s 750 mmHg 84%
    08:00 +13°C° 0.2 mm 6 m/s 749 mmHg 85%
    09:00 +13°C° 0.2 mm 6 m/s 749 mmHg 86%
    10:00 +13°C° 0.3 mm 6 m/s 749 mmHg 87%
    11:00 +13°C° 0.3 mm 6 m/s 749 mmHg 87%
    12:00 +13°C° 0.3 mm 6 m/s 749 mmHg 88%
    13:00 +13°C° 0.3 mm 6 m/s 749 mmHg 89%
    14:00 +13°C° 0.3 mm 6 m/s 748 mmHg 89%
    15:00 +13°C° 0.3 mm 6 m/s 748 mmHg 90%
    16:00 +13°C° 0.1 mm 5 m/s 748 mmHg 91%
    17:00 +13°C° 0.1 mm 5 m/s 748 mmHg 91%
    18:00 +13°C° 0.1 mm 4 m/s 748 mmHg 91%
    19:00 +13°C° 0.1 mm 4 m/s 748 mmHg 91%
    20:00 +12°C° 0.1 mm 4 m/s 748 mmHg 91%
    21:00 +12°C° 0.1 mm 4 m/s 748 mmHg 92%
    22:00 +12°C° 0.2 mm 4 m/s 747 mmHg 92%
    23:00 +12°C° 0.2 mm 3 m/s 747 mmHg 92%
    Arată mai mult